Location: Buckenweiler
(49.0667°N, 10.2500°E)
Time: 06:25:43
(UTC+00:00)

Cosmos 1959 Rocket - Pass Details

Date: 18 January 2026
Orbit: 947 x 996 km, 83.0° (Epoch: 17 February)

Event Time Altitude Azimuth Distance (km) Brightness Sun altitude
Rises 06:18:03 0° 197° (SSW) 3,632 7.6 -7.8°
Reaches altitude 10° 06:20:35 10° 200° (SSW) 2,684 6.9 -7.4°
Maximum altitude 06:26:39 64° 282° (WNW) 1,047 4.5 -6.5°
Drops below altitude 10° 06:32:45 10° 4° (N) 2,682 6.6 -5.6°
Sets 06:35:17 0° 8° (N) 3,630 7.3 -5.2°
